Weather History for Nairobi Wilson, Kenya

Change the Weather History Date:

Thursday, December 5, 2013

  Actual Average Record
Temperature  
Mean Temperature 68 °F -  
Max Temperature 75 °F 71 °F 77 °F (2012)
Min Temperature 60 °F 61 °F 59 °F (2004)
Cooling Degree Days 2    
Growing Degree Days 18 (Base 50)    
Moisture  
Dew Point 59 °F    
Average Humidity 81    
Maximum Humidity 100    
Minimum Humidity 53    
Precipitation  
Precipitation 0.00 in - - ()
Sea Level Pressure  
Sea Level Pressure 30.09 in    
Wind  
Wind Speed 3 mph ()    
Max Wind Speed 12 mph    
Max Gust Speed -    
Visibility 6.2 miles    
Events Fog , Rain , Thunderstorm    
Averages and records for this station are not official NWS values.
T = Trace of Precipitation, MM = Missing Value Source: Averaged Metar Reports

Daily Weather History Graph

Daily Weather History Graph

Search for Another Location

Airport:

Trip Planner

Search our weather history database for the weather conditions in past years. The results will help you decide how hot, cold, wet, or windy it might be!

Date:

Astronomy

Dec. 05, 2013 Rise Set
Actual Time 6:17 AM EAT 6:29 PM EAT
Civil Twilight 5:55 AM EAT 6:51 PM EAT
Nautical Twilight 5:29 AM EAT 7:17 PM EAT
Astronomical Twilight 5:02 AM EAT 7:44 PM EAT
Moon 8:34 AM EAT (12/5) 9:06 PM EAT (12/5)
Length of Visible Light 12h 56m
Length of Day
12h 11m
Waxing Crescent, 8% of the Moon is Illuminated
Dec 5
Waxing Crescent
Dec 9
First Quarter
Dec 17
Full
Dec 25
Last Quarter
Jan 1
New

Hourly Weather History & Observations

Time (EAT) Temp. Dew Point Humidity Pressure Visibility Wind Dir Wind Speed Gust Speed Precip Events Conditions
12:00 AM 64.4 °F 60.8 °F 88% 30.12 in 6.2 mi NE 4.6 mph - N/A   Mostly Cloudy
1:00 AM 62.6 °F 60.8 °F 94% 30.12 in 6.2 mi Calm Calm - N/A   Scattered Clouds
2:00 AM 62.6 °F 60.8 °F 94% 30.12 in 6.2 mi Calm Calm - N/A   Scattered Clouds
3:00 AM 60.8 °F 59.0 °F 94% 30.09 in 6.2 mi Calm Calm - N/A   Scattered Clouds
4:00 AM 60.8 °F 59.0 °F 94% 30.09 in 6.2 mi Calm Calm - N/A   Scattered Clouds
5:00 AM 60.8 °F 59.0 °F 94% 30.09 in 6.2 mi Calm Calm - N/A   Scattered Clouds
6:00 AM 60.8 °F 59.0 °F 94% 30.12 in 6.2 mi ESE 5.8 mph - N/A   Mostly Cloudy
7:00 AM 60.8 °F 59.0 °F 94% 30.12 in 6.2 mi Calm Calm - N/A   Mostly Cloudy
8:00 AM 62.6 °F 60.8 °F 94% 30.15 in 6.2 mi Calm Calm - N/A   Mostly Cloudy
9:00 AM 64.4 °F 60.8 °F 88% 30.15 in 6.2 mi ENE 5.8 mph - N/A Fog Light Fog
10:00 AM 68.0 °F 60.8 °F 78% 30.15 in 6.2 mi North - - N/A   Mostly Cloudy
11:00 AM 71.6 °F 60.8 °F 69% 30.12 in 6.2 mi ENE 5.8 mph - N/A   Mostly Cloudy
12:00 PM 73.4 °F 55.4 °F 53% 30.15 in 6.2 mi NNE 9.2 mph - N/A   Mostly Cloudy
1:00 PM 75.2 °F 57.2 °F 53% 30.06 in 6.2 mi East 9.2 mph - N/A   Mostly Cloudy
2:00 PM 75.2 °F 57.2 °F 53% 30.06 in 6.2 mi ENE 6.9 mph - N/A   Mostly Cloudy
3:00 PM 75.2 °F 57.2 °F 53% 30.04 in 6.2 mi East 9.2 mph - N/A   Mostly Cloudy
4:00 PM 75.2 °F 57.2 °F 53% 30.04 in 6.2 mi East 11.5 mph - N/A   Mostly Cloudy
5:00 PM 73.4 °F 57.2 °F 57% 30.01 in 6.2 mi East 5.8 mph - N/A   Mostly Cloudy
6:00 PM 66.2 °F 60.8 °F 83% 30.04 in 6.2 mi NNW 11.5 mph - N/A Rain Light Rain
7:00 PM 64.4 °F 60.8 °F 88% 30.06 in 6.2 mi East 3.5 mph - N/A Rain , Thunderstorm Thunderstorms and Rain
8:00 PM 62.6 °F 60.8 °F 94% 30.06 in 6.2 mi Calm Calm - N/A   Mostly Cloudy
9:00 PM 62.6 °F 60.8 °F 94% 30.09 in 6.2 mi Calm Calm - N/A   Mostly Cloudy
10:00 PM 60.8 °F 59.0 °F 94% 30.09 in 6.2 mi Calm Calm - N/A Rain , Thunderstorm Thunderstorms and Rain
11:00 PM 62.6 °F 62.6 °F 100% 30.12 in 6.2 mi Calm Calm - N/A   Mostly Cloudy